Terminal Aerodrome Forecast
Issued by NWS

Home | Current Version | Previous Version | Text Only | Print | Product List | Glossary On
Versions: 1 2 3 4 5 6 7 8 9 10 11 12 13 14 15 16 17 18
000
FTUS41 KBOX 241130
TAFBAF
TAF
KBAF 241130Z 2412/2512 23006KT P6SM VCSH BKN060
     FM241400 28010G18KT P6SM BKN060
     FM241600 29013G20KT P6SM SCT060
     FM242300 30007KT P6SM SKC
     FM250700 00000KT P6SM FEW250=

USA.gov is the U.S. government's official web portal to all federal, state and local government web resources and services.